• Join FlightAware (Why Join?)
  • Login
  • US Flag 
06:34AM EDT


 

Airport Tracker/Info


-or-


 

Live Flight TrackerFlight Track Log ✈ GJS3618 ✈ 19-Apr-2013 ✈ KORD - KALB

Flight Track Log - Related Links

Times and Time Zones

All times are in EDT time to prevent confusion due to time zone crossing. See the GJS3618 flight status page for this flight to view local times or setup timezone preferences in your user account.

Time Position Orientation Groundspeed Altitude Reporting Facility
EDT Latitude Longitude Course Direction KTS MPH feet Rate Location/Type
09:09AM 42.0000 -87.9333 14° North 152 175 1,500  Level Chicago TRACON
09:10AM 42.0500 -87.9167 14° North 230 265 3,400 1,560 Climbing Chicago TRACON
09:11AM 42.1000 -87.8500 45° Northeast 286 329 4,700 1,680 Climbing Chicago TRACON
09:12AM 42.1458 -87.8047 36° Northeast 284 327 6,400 2,100 Climbing Chicago Center
09:13AM 42.1728 -87.6953 72° East 318 366 8,500 2,100 Climbing Chicago Center
09:14AM 42.1897 -87.5767 79° East 320 368 10,800 1,920 Climbing Chicago Center
09:15AM 42.2103 -87.4531 77° East 332 382 12,500 1,560 Climbing Chicago Center
09:16AM 42.2261 -87.3111 81° East 371 427 14,100 1,680 Climbing Chicago Center
09:17AM 42.2311 -87.1289 88° East 403 464 16,000 1,620 Climbing Chicago Center
09:18AM 42.2361 -86.9661 88° East 430 495 17,500 1,800 Climbing Chicago Center
09:19AM 42.2292 -86.8081 93° East 417 480 19,800 1,860 Climbing Chicago Center
09:20AM 42.2300 -86.6350 90° East 448 516 21,400 1,440 Climbing Chicago Center
09:21AM 42.2361 -86.4619 87° East 460 529 22,800 1,380 Climbing Chicago Center
09:22AM 42.2425 -86.2878 87° East 464 534 24,300 1,320 Climbing Chicago Center
09:23AM 42.2483 -86.1092 87° East 473 544 25,600 1,200 Climbing Chicago Center
09:24AM 42.2536 -85.9089 88° East 477 549 26,800 1,080 Climbing Chicago Center
09:25AM 42.2583 -85.7278 88° East 485 558 27,900 960 Climbing Chicago Center
09:26AM 42.2639 -85.5461 88° East 488 562 28,900 960 Climbing Chicago Center
09:27AM 42.2681 -85.3614 88° East 494 568 29,900 960 Climbing Chicago Center
09:28AM 42.2753 -85.1581 87° East 496 571 30,900 960 Climbing Cleveland Center
09:29AM 42.2806 -84.9731 88° East 496 571 31,900 960 Climbing Cleveland Center
09:30AM 42.2833 -84.7878 89° East 496 571 32,900 900 Climbing Cleveland Center
09:31AM 42.2814 -84.6081 91° East 496 571 33,800 900 Climbing Cleveland Center
09:32AM 42.2894 -84.4289 86° East 482 555 34,800 600 Climbing Cleveland Center
09:33AM 42.3144 -84.2450 80° East 482 555 35,000 60 Climbing Cleveland Center
09:34AM 42.3431 -84.0611 78° East 482 555 35,000  Level Cleveland Center
09:35AM 42.3692 -83.8772 79° East 487 560 35,000  Level Cleveland Center
09:36AM 42.3953 -83.6956 79° East 487 560 35,000  Level Cleveland Center
09:37AM 42.4083 -83.5136 84° East 487 560 35,000  Level Cleveland Center
09:38AM 42.4167 -83.3367 86° East 475 547 35,000  Level Cleveland Center
09:39AM 42.4228 -83.1708 87° East 475 547 35,000  Level Cleveland Center
09:40AM 42.4286 -82.9939 87° East 475 547 35,000  Level Cleveland Center
09:41AM 42.4344 -82.8142 87° East 475 547 35,000  Level Cleveland Center
09:42AM 42.4397 -82.6397 88° East 475 547 35,000  Level Cleveland Center
09:43AM 42.4428 -82.4569 89° East 475 547 35,000  Level Cleveland Center
09:44AM 42.4497 -82.2800 87° East 475 547 35,000  Level Cleveland Center
09:45AM 42.4544 -82.0831 88° East 475 547 35,000  Level Cleveland Center
09:46AM 42.4564 -81.9369 89° East 480 552 35,000  Level Cleveland Center
09:47AM 42.4628 -81.7203 88° East 480 552 35,000  Level Cleveland Center
09:48AM 42.4689 -81.5344 87° East 480 552 35,000  Level Cleveland Center
09:49AM 42.4722 -81.3517 89° East 486 559 35,000  Level Cleveland Center
09:50AM 42.4733 -81.1631 89° East 481 554 35,000  Level Cleveland Center
09:51AM 42.4761 -80.9800 89° East 486 559 35,000  Level Cleveland Center
09:52AM 42.4789 -80.7944 89° East 491 565 35,000  Level Cleveland Center
09:53AM 42.4894 -80.6283 85° East 491 565 35,000  Level Cleveland Center
09:54AM 42.5019 -80.4453 85° East 492 566 35,000  Level Cleveland Center
09:55AM 42.5139 -80.2622 85° East 497 572 35,000  Level Cleveland Center
09:56AM 42.5258 -80.0706 85° East 497 572 35,000  Level Cleveland Center
09:57AM 42.5414 -79.8675 84° East 497 572 35,000  Level Cleveland Center
09:58AM 42.5506 -79.6814 86° East 497 572 35,000  Level Cleveland Center
09:59AM 42.5633 -79.4922 85° East 497 572 35,000  Level Cleveland Center
10:00AM 42.5719 -79.3061 86° East 497 572 35,000  Level Cleveland Center
10:01AM 42.5844 -79.1197 85° East 497 572 35,000  Level Cleveland Center
10:02AM 42.5944 -78.9333 86° East 497 572 35,000 -300 Level Cleveland Center
10:03AM 42.6019 -78.7469 87° East 497 572 34,500 -780 Descending Cleveland Center
10:04AM 42.6114 -78.5603 86° East 497 572 33,500 -840 Descending Cleveland Center
10:05AM 42.6206 -78.3767 86° East 497 572 32,900 -1,080 Descending Cleveland Center
10:06AM 42.6292 -78.1900 86° East 497 572 31,400 -1,320 Descending Cleveland Center
10:07AM 42.6375 -77.9978 87° East 502 578 30,300 -1,080 Descending Cleveland Center
10:08AM 42.6458 -77.8139 86° East 497 572 29,300 -660 Descending Cleveland Center
10:09AM 42.6542 -77.6469 86° East 497 572 29,000 -120 Descending Cleveland Center
10:12AM 42.6714 -77.1597 87° East 494 568 29,000  Level Boston Center
10:13AM 42.6792 -76.9681 87° East 494 568 29,000  Level Boston Center
10:14AM 42.6864 -76.7792 87° East 499 574 29,000 -60 Level Boston Center
10:15AM 42.6917 -76.5847 88° East 499 574 28,900 -900 Descending Boston Center
10:16AM 42.6986 -76.3928 87° East 499 574 27,300 -1,320 Descending Boston Center
10:17AM 42.7022 -76.2828 87° East 499 574 26,300 -1,380 Descending Boston Center
10:18AM 42.7100 -76.0458 87° East 489 563 24,300 -1,800 Descending Boston Center
10:19AM 42.7369 -75.8494 79° East 479 551 22,400 -1,920 Descending Boston Center
10:20AM 42.7719 -75.6533 76° East 463 533 20,600 -1,680 Descending Boston Center
10:21AM 42.7992 -75.4964 77° East 438 504 19,100 -1,560 Descending Boston Center
10:22AM 42.8261 -75.3447 76° East 422 486 17,500 -1,440 Descending Boston Center
10:23AM 42.8547 -75.1931 76° East 417 480 16,200 -1,380 Descending Boston Center
10:24AM 42.8792 -75.0442 77° East 410 472 14,800 -1,440 Descending Boston Center
10:25AM 42.9053 -74.8950 77° East 410 472 13,400 -1,380 Descending Boston Center
10:25AM 42.9217 -74.8106 75° East 387 445 12,700 -1,320 Descending Boston Center
10:26AM 42.9292 -74.7483 81° East 405 466 12,100 -1,260 Descending Boston Center
10:27AM 42.9550 -74.6075 76° East 387 445 11,000 -600 Descending Boston Center
10:28AM 42.9761 -74.4778 77° East 387 445 10,900 -240 Descending Boston Center
10:28AM 42.9875 -74.4269 73° East 385 443 10,700 -1,380 Descending Boston Center
10:29AM 43.0097 -74.3369 71° East 369 425 9,600 -1,560 Descending Boston Center
10:29AM 43.0228 -74.3031 62° Northeast 345 397 9,100 -1,620 Descending Boston Center
10:30AM 43.0428 -74.2328 69° East 345 397 8,000 -1,800 Descending Boston Center
10:30AM 43.0603 -74.1878 62° Northeast 329 379 7,300 -2,040 Descending Boston Center
10:31AM 43.0761 -74.1058 75° East 320 368 5,900 -2,040 Descending Boston Center
10:31AM 43.0789 -74.0575 85° East 291 335 5,100 -1,320 Descending Boston Center
10:32AM 43.0772 -74.0092 93° East 292 336 4,600 -1,020 Descending Boston Center
10:32AM 43.0761 -73.9550 92° East 233 268 4,000 -660 Descending Boston Center
10:33AM 43.0681 -73.9150 105° East 244 281 4,000 -120 Level Boston Center
10:33AM 43.0603 -73.8753 105° East 213 245 3,900  Descending Boston Center
10:34AM 43.0397 -73.8547 144° Southeast 216 249 4,000 60 Climbing Boston Center
10:34AM 43.0172 -73.8258 137° Southeast 211 243 4,000 -240 Level Boston Center
10:35AM 42.9922 -73.8169 165° South 201 231 3,800 -720 Descending Boston Center
10:35AM 42.9631 -73.8161 179° South 183 211 3,300 -840 Descending Boston Center
10:36AM 42.9361 -73.8128 175° South 190 219 3,000 -300 Descending Boston Center
10:36AM 42.9153 -73.8150 184° South 175 201 3,000 -120 Level Boston Center
10:37AM 42.8944 -73.8117 173° South 175 201 2,900 -600 Descending Boston Center
10:37AM 42.8653 -73.8139 183° South 161 185 2,400 -540 Descending Boston Center
10:38AM 42.8422 -73.8106 174° South 169 194 2,400 -780 Level Boston Center
10:38AM 42.8319 -73.8133 191° South 150 173 1,700 16,560 Descending Boston Center
10:39AM 42.7964 -73.8097 176° South 169 194 19,000 -600 Climbing Boston Center
10:39AM 42.7964 -73.8097 176° South 114 131 1,100 -13,740 Descending Boston Center
10:40AM 42.7672 -73.8061 175° South 109 125 500 -720 Descending Boston Center
10:42AM 42.7491 -73.8020 136° Southeast  Level Estimated
10:49AM 42.7491 -73.8020 136° Southeast  Level Estimated